Regional Weather Roundup
Issued by NWS Goodland, KS

Home | Current Version | Previous Version | Graphics & Text | Print | Product List | Glossary On
Versions: 1 2 3 4 5 6 7 8 9 10 11 12 13 14 15 16 17 18 19 20 21 22 23 24 25 26 27 28 29 30 31 32 33 34 35 36 37 38 39 40 41 42 43 44 45 46 47 48 49 50
124
ASUS43 KGLD 171159
RWRGLD

GOODLAND FORECAST AREA HOURLY WEATHER ROUNDUP
NATIONAL WEATHER SERVICE GOODLAND KS
600 AM MDT TUE OCT 17 2017

...OFFICIAL OBSERVATIONS...

CITY           SKY/WX    TMP DP  RH WIND       PRES   REMARKS
GOODLAND KS    CLOUDY    37  29  72 W9        30.17S
HILL CITY KS   CLEAR     40  36  86 W5        30.12R
IMPERIAL NEB   CLOUDY    37  28  70 W6        30.18R
MCCOOK NEB     CLEAR     38  33  82 W7        30.15R
AKRON CO       CLOUDY    41  19  41 W13       30.22R
BURLINGTON CO  CLOUDY    38  27  64 NW8       30.20R
LIMON CO       CLOUDY    26  21  81 N5        30.26S
$$

...UNOFFICIAL OBSERVATIONS...

CITY           SKY/WX    TMP DP  RH WIND       PRES   REMARKS
NORTON KS      CLEAR     41  30  65 W7        30.11R
TRENTON NEB      N/A     41  32  70 NW7         N/A
YUMA CO        FAIR      34  27  75 W9        30.20S
$$




USA.gov is the U.S. government's official web portal to all federal, state and local government web resources and services.